Weather History for Rome, GA

Change the Weather History Date:

Wednesday, December 5, 2012

  Actual Average Record
Temperature  
Mean Temperature 56 °F 45 °F  
Max Temperature 61 °F 55 °F 75 °F (1998)
Min Temperature 52 °F 34 °F 19 °F (2006)
Degree Days  
Heating Degree Days 8 20  
Month to date heating degree days 99  
Since 1 July heating degree days 706  
Growing Degree Days 6 (Base 50)    
Moisture  
Dew Point 56 °F    
Average Humidity 93    
Maximum Humidity 100    
Minimum Humidity 72    
Precipitation  
Precipitation 0.12 in 0.19 in 1.14 in (2002)
Month to date precipitation 0.94  
Snow  
Snow 0.00 in - - ()
Month to date snowfall  
Since 1 July snowfall  
Snow Depth -    
Sea Level Pressure  
Sea Level Pressure 30.18 in    
Wind  
Wind Speed 1 mph (NNW)    
Max Wind Speed 10 mph    
Max Gust Speed -    
Visibility 7 miles    
Events Rain    
T = Trace of Precipitation, MM = Missing Value Source: NWS Daily Summary

Daily Weather History Graph

Daily Weather History Graph

Search for Another Location

Airport:

Trip Planner

Search our weather history database for the weather conditions in past years. The results will help you decide how hot, cold, wet, or windy it might be!

Date:

Astronomy

Dec. 05, 2012 Rise Set
Actual Time 7:32 AM EST 5:30 PM EST
Civil Twilight 7:04 AM EST 5:58 PM EST
Nautical Twilight 6:33 AM EST 6:29 PM EST
Astronomical Twilight 6:03 AM EST 6:59 PM EST
Moon No Moon Rise 12:07 PM EST (12/5)
Length of Visible Light 10h 53m
Length of Day
9h 57m
Waning Gibbous, 60% of the Moon is Illuminated
Dec 5
Waning Gibbous
Dec 6
Last Quarter
Dec 13
New
Dec 20
First Quarter
Dec 28
Full

Hourly Weather History & Observations

Time (EST) Temp. Dew Point Humidity Pressure Visibility Wind Dir Wind Speed Gust Speed Precip Events Conditions
12:53 AM 57.0 °F 54.0 °F 89% 30.16 in 10.0 mi Calm Calm - N/A   Clear
1:53 AM 55.9 °F 53.1 °F 90% 30.16 in 10.0 mi Calm Calm - N/A   Mostly Cloudy
2:53 AM 57.9 °F 55.0 °F 90% 30.16 in 10.0 mi Calm Calm - N/A   Overcast
3:53 AM 57.0 °F 55.0 °F 93% 30.15 in 10.0 mi Calm Calm - N/A   Overcast
4:53 AM 57.0 °F 55.9 °F 96% 30.15 in 10.0 mi Calm Calm - 0.00 in Rain Light Rain
5:53 AM 57.0 °F 55.9 °F 96% 30.16 in 5.0 mi Calm Calm - 0.00 in Rain Light Rain
6:03 AM 57.2 °F 57.2 °F 100% 30.18 in 5.0 mi Calm Calm - 0.01 in Rain Light Rain
6:37 AM 57.2 °F 57.2 °F 100% 30.19 in 2.5 mi Calm Calm - 0.02 in Rain Light Rain
6:43 AM 57.2 °F 57.2 °F 100% 30.19 in 3.0 mi Calm Calm - 0.02 in Rain Light Rain
6:53 AM 57.9 °F 57.9 °F 100% 30.18 in 3.0 mi Calm Calm - 0.03 in Rain Light Rain
7:00 AM 57.2 °F 57.2 °F 100% 30.19 in 3.0 mi Calm Calm - 0.01 in Rain Light Rain
7:09 AM 57.2 °F 57.2 °F 100% 30.20 in 5.0 mi Calm Calm - 0.01 in Rain Light Rain
7:20 AM 57.2 °F 57.2 °F 100% 30.20 in 5.0 mi Calm Calm - 0.01 in   Overcast
7:38 AM 57.2 °F 57.2 °F 100% 30.20 in 2.5 mi West 3.5 mph - 0.02 in Rain Light Rain
7:51 AM 59.0 °F 59.0 °F 100% 30.20 in 3.0 mi Calm Calm - 0.02 in   Overcast
7:53 AM 59.0 °F 59.0 °F 100% 30.19 in 4.0 mi Calm Calm - 0.02 in   Overcast
9:43 AM 59.0 °F 59.0 °F 100% 30.23 in 2.0 mi Calm Calm - 0.02 in Rain Light Rain
9:53 AM 59.0 °F 59.0 °F 100% 30.22 in 2.5 mi Calm Calm - 0.03 in Rain Light Rain
10:02 AM 60.8 °F 60.8 °F 100% 30.23 in 3.0 mi Calm Calm - 0.00 in Rain Light Rain
10:09 AM 60.8 °F 60.8 °F 100% 30.23 in 2.5 mi Calm Calm - 0.00 in Rain Light Rain
10:17 AM 60.8 °F 60.8 °F 100% 30.23 in 3.0 mi Calm Calm - 0.01 in Rain Light Rain
10:20 AM 60.8 °F 60.8 °F 100% 30.24 in 2.5 mi West 3.5 mph - 0.01 in Rain Light Rain
10:29 AM 60.8 °F 59.0 °F 94% 30.24 in 1.8 mi West 4.6 mph - 0.02 in Rain Light Rain
10:36 AM 60.8 °F 60.8 °F 100% 30.24 in 1.8 mi West 3.5 mph - 0.03 in Rain Light Rain
10:45 AM 60.8 °F 59.0 °F 94% 30.24 in 3.0 mi NW 3.5 mph - 0.04 in Rain Light Rain
10:53 AM 60.1 °F 60.1 °F 100% 30.22 in 4.0 mi Calm Calm - 0.04 in Rain Light Rain
11:22 AM 60.8 °F 59.0 °F 94% 30.23 in 10.0 mi Calm Calm - 0.01 in Rain Light Rain
11:53 AM 61.0 °F 60.1 °F 97% 30.20 in 10.0 mi NW 3.5 mph - 0.01 in   Overcast
12:26 PM 60.8 °F 57.2 °F 88% 30.20 in 10.0 mi NNE 10.4 mph - N/A   Overcast
12:33 PM 59.0 °F 57.2 °F 94% 30.20 in 10.0 mi North 10.4 mph - 0.00 in Rain Light Rain
12:45 PM 59.0 °F 57.2 °F 94% 30.20 in 10.0 mi North 6.9 mph - 0.00 in   Overcast
12:53 PM 57.9 °F 57.0 °F 97% 30.19 in 10.0 mi North 8.1 mph - 0.00 in   Overcast
1:19 PM 60.8 °F 57.2 °F 88% 30.18 in 10.0 mi NNE 6.9 mph - N/A   Overcast
1:50 PM 60.8 °F 57.2 °F 88% 30.17 in 10.0 mi North 8.1 mph - N/A   Overcast
1:53 PM 60.1 °F 57.0 °F 90% 30.16 in 10.0 mi North 5.8 mph - N/A   Overcast
2:53 PM 60.1 °F 55.9 °F 86% 30.14 in 10.0 mi North 4.6 mph - 0.00 in   Overcast
3:53 PM 60.1 °F 53.1 °F 78% 30.14 in 10.0 mi North 6.9 mph - N/A   Overcast
4:02 PM 60.8 °F 53.6 °F 77% 30.15 in 10.0 mi North 6.9 mph - N/A   Overcast
4:53 PM 60.1 °F 52.0 °F 75% 30.14 in 10.0 mi North 3.5 mph - N/A   Mostly Cloudy
5:53 PM 57.9 °F 50.0 °F 75% 30.14 in 10.0 mi North 5.8 mph - N/A   Mostly Cloudy
6:53 PM 57.0 °F 48.0 °F 72% 30.15 in 10.0 mi Calm Calm - N/A   Overcast
7:53 PM 55.0 °F 50.0 °F 83% 30.16 in 10.0 mi Calm Calm - 0.00 in Rain Light Rain
8:53 PM 55.0 °F 48.0 °F 77% 30.15 in 10.0 mi Calm Calm - 0.00 in   Overcast
9:53 PM 54.0 °F 48.9 °F 83% 30.14 in 10.0 mi Calm Calm - N/A   Scattered Clouds
10:53 PM 52.0 °F 48.0 °F 86% 30.13 in 10.0 mi Calm Calm - N/A   Mostly Cloudy
11:53 PM 52.0 °F 48.9 °F 89% 30.12 in 10.0 mi Calm Calm - N/A   Overcast